When you browse on this site, cookies collect data to enhance your experience and personalize the content and advertising you see.
Visit our Privacy Policy to learn more. By continuing to use the site, you agree to this use of cookies and data.
  • In Austria
  • List of Countries
  • For 7 days
  • Water Temperature
  • Weather Map
  • News
  • Weather Widgets
  • user-avatar
    Login

    Hourly Weather Dinagepoor

    Today, 23 August, Friday

    Time Temperature Precipitation Wind Pressure Humidity
    00:00 +32°C° 0 mm 2 mps 749 mmHg 78%
    01:00 +31°C° 1.2 mm 2 mps 749 mmHg 80%
    02:00 +31°C° 1.2 mm 2 mps 748 mmHg 82%
    03:00 +30°C° 1.2 mm 2 mps 748 mmHg 84%
    04:00 +30°C° 1.6 mm 3 mps 748 mmHg 84%
    05:00 +30°C° 1.6 mm 3 mps 748 mmHg 83%
    06:00 +30°C° 0 mm 3 mps 748 mmHg 85%
    07:00 +31°C° 0.5 mm 3 mps 749 mmHg 80%
    08:00 +33°C° 0.5 mm 3 mps 749 mmHg 75%
    09:00 +34°C° 0.5 mm 3 mps 749 mmHg 70%
    10:00 +35°C° 0.1 mm 3 mps 749 mmHg 65%
    11:00 +36°C° 0.1 mm 3 mps 749 mmHg 60%
    12:00 +37°C° 0.1 mm 3 mps 749 mmHg 55%
    13:00 +37°C° 0.5 mm 3 mps 748 mmHg 56%
    14:00 +37°C° 0.5 mm 3 mps 747 mmHg 56%
    15:00 +37°C° 0.5 mm 4 mps 747 mmHg 57%
    16:00 +37°C° 0.4 mm 3 mps 747 mmHg 59%
    17:00 +36°C° 0.4 mm 3 mps 747 mmHg 62%
    18:00 +36°C° 0.4 mm 2 mps 747 mmHg 64%
    19:00 +35°C° 0.2 mm 3 mps 748 mmHg 67%
    20:00 +34°C° 0.2 mm 3 mps 748 mmHg 70%
    21:00 +34°C° 0.2 mm 3 mps 749 mmHg 73%
    22:00 +33°C° 0.5 mm 3 mps 749 mmHg 74%
    23:00 +33°C° 0.5 mm 3 mps 749 mmHg 76%

    Tomorrow, 24 August, Saturday

    Time Temperature Precipitation Wind Pressure Humidity
    00:00 +31°C° 0.5 mm 3 mps 749 mmHg 78%
    01:00 +31°C° 0.8 mm 3 mps 749 mmHg 79%
    02:00 +30°C° 0.8 mm 3 mps 749 mmHg 81%
    03:00 +30°C° 0.8 mm 3 mps 749 mmHg 83%
    04:00 +30°C° 0.7 mm 3 mps 749 mmHg 85%
    05:00 +29°C° 0.7 mm 4 mps 749 mmHg 86%
    06:00 +29°C° 0.7 mm 4 mps 749 mmHg 88%
    07:00 +29°C° 0.3 mm 4 mps 750 mmHg 88%
    08:00 +29°C° 0.3 mm 4 mps 750 mmHg 88%
    09:00 +29°C° 0.3 mm 4 mps 751 mmHg 88%
    10:00 +29°C° 0.8 mm 4 mps 751 mmHg 85%
    11:00 +30°C° 0.8 mm 5 mps 751 mmHg 83%
    12:00 +30°C° 0.8 mm 5 mps 751 mmHg 81%
    13:00 +30°C° 0.3 mm 5 mps 750 mmHg 80%
    14:00 +30°C° 0.3 mm 6 mps 749 mmHg 79%
    15:00 +32°C° 0.3 mm 6 mps 749 mmHg 78%
    16:00 +30°C° 0 mm 5 mps 748 mmHg 79%
    17:00 +30°C° 0 mm 5 mps 748 mmHg 81%
    18:00 +30°C° 0 mm 4 mps 748 mmHg 82%
    19:00 +29°C° 0 mm 4 mps 748 mmHg 84%
    20:00 +29°C° 0 mm 3 mps 749 mmHg 85%
    21:00 +29°C° 0 mm 3 mps 750 mmHg 87%
    22:00 +29°C° 0 mm 3 mps 750 mmHg 88%
    23:00 +28°C° 0 mm 3 mps 750 mmHg 89%

    Day after tomorrow, 25 August, Sunday

    Time Temperature Precipitation Wind Pressure Humidity
    00:00 +28°C° 0 mm 3 mps 750 mmHg 90%
    01:00 +28°C° 0 mm 3 mps 750 mmHg 90%
    02:00 +28°C° 0 mm 3 mps 749 mmHg 90%
    03:00 +28°C° 0 mm 3 mps 749 mmHg 90%
    04:00 +28°C° 0.1 mm 4 mps 749 mmHg 90%
    05:00 +28°C° 0.1 mm 4 mps 749 mmHg 90%
    06:00 +28°C° 0.1 mm 4 mps 750 mmHg 90%
    07:00 +28°C° 0.5 mm 5 mps 750 mmHg 88%
    08:00 +29°C° 0.5 mm 5 mps 750 mmHg 85%
    09:00 +29°C° 0.5 mm 5 mps 751 mmHg 83%
    10:00 +30°C° 0.1 mm 5 mps 751 mmHg 79%
    11:00 +32°C° 0.1 mm 5 mps 751 mmHg 75%
    12:00 +33°C° 0.1 mm 5 mps 750 mmHg 70%
    13:00 +33°C° 0 mm 4 mps 750 mmHg 68%
    14:00 +34°C° 0 mm 4 mps 749 mmHg 66%
    15:00 +34°C° 0 mm 3 mps 748 mmHg 64%
    16:00 +34°C° 0 mm 3 mps 748 mmHg 65%
    17:00 +34°C° 0 mm 3 mps 748 mmHg 66%
    18:00 +33°C° 0 mm 3 mps 748 mmHg 68%
    19:00 +32°C° 0 mm 2 mps 748 mmHg 70%
    20:00 +31°C° 0 mm 2 mps 749 mmHg 73%
    21:00 +30°C° 0 mm 2 mps 750 mmHg 76%
    22:00 +30°C° 0 mm 1 mps 750 mmHg 76%
    23:00 +30°C° 0 mm 1 mps 750 mmHg 76%

    26 August, Monday

    Time Temperature Precipitation Wind Pressure Humidity
    00:00 +30°C° 0 mm 1 mps 750 mmHg 75%
    01:00 +30°C° 0 mm 1 mps 749 mmHg 77%
    02:00 +29°C° 0 mm 1 mps 749 mmHg 78%
    03:00 +29°C° 0 mm 1 mps 748 mmHg 79%
    04:00 +29°C° 0 mm 2 mps 749 mmHg 80%
    05:00 +29°C° 0 mm 2 mps 749 mmHg 82%
    06:00 +29°C° 0 mm 2 mps 749 mmHg 83%
    07:00 +30°C° 0 mm 2 mps 749 mmHg 77%
    08:00 +31°C° 0 mm 2 mps 749 mmHg 72%
    09:00 +34°C° 0 mm 3 mps 750 mmHg 66%
    10:00 +35°C° 0 mm 2 mps 749 mmHg 63%
    11:00 +35°C° 0 mm 2 mps 749 mmHg 60%
    12:00 +36°C° 0 mm 2 mps 748 mmHg 57%
    13:00 +36°C° 0 mm 2 mps 748 mmHg 56%
    14:00 +37°C° 0 mm 2 mps 747 mmHg 55%
    15:00 +36°C° 0 mm 1 mps 747 mmHg 53%
    16:00 +36°C° 0 mm 1 mps 746 mmHg 56%
    17:00 +35°C° 0 mm 1 mps 746 mmHg 58%
    18:00 +35°C° 0 mm 1 mps 746 mmHg 60%
    19:00 +34°C° 0 mm 1 mps 747 mmHg 62%
    20:00 +35°C° 0 mm 2 mps 747 mmHg 65%
    21:00 +34°C° 0 mm 2 mps 748 mmHg 67%
    22:00 +34°C° 0 mm 2 mps 748 mmHg 69%
    23:00 +32°C° 0 mm 1 mps 748 mmHg 70%

    27 August, Tuesday

    Time Temperature Precipitation Wind Pressure Humidity
    00:00 +32°C° 0 mm 1 mps 748 mmHg 72%
    01:00 +32°C° 0 mm 1 mps 748 mmHg 74%
    02:00 +31°C° 0 mm 1 mps 748 mmHg 75%
    03:00 +31°C° 0 mm 1 mps 747 mmHg 77%
    04:00 +31°C° 0 mm 1 mps 748 mmHg 78%
    05:00 +29°C° 0 mm 0 mps 748 mmHg 80%
    06:00 +28°C° 0 mm 0 mps 748 mmHg 81%
    07:00 +32°C° 0 mm 1 mps 748 mmHg 75%
    08:00 +33°C° 0 mm 1 mps 748 mmHg 70%
    09:00 +34°C° 0 mm 1 mps 749 mmHg 64%
    10:00 +35°C° 0 mm 1 mps 749 mmHg 60%
    11:00 +37°C° 0 mm 2 mps 748 mmHg 55%
    12:00 +38°C° 0 mm 2 mps 748 mmHg 51%
    13:00 +38°C° 0 mm 2 mps 747 mmHg 52%
    14:00 +37°C° 0 mm 1 mps 747 mmHg 52%
    15:00 +37°C° 0 mm 1 mps 746 mmHg 52%
    16:00 +37°C° 0 mm 1 mps 746 mmHg 55%
    17:00 +36°C° 0 mm 1 mps 746 mmHg 57%
    18:00 +36°C° 0 mm 1 mps 745 mmHg 59%
    19:00 +35°C° 0 mm 1 mps 746 mmHg 61%
    20:00 +35°C° 0 mm 1 mps 747 mmHg 62%
    21:00 +34°C° 0 mm 1 mps 748 mmHg 64%
    22:00 +34°C° 0 mm 1 mps 748 mmHg 65%
    23:00 +33°C° 0 mm 1 mps 748 mmHg 67%

    28 August, Wednesday

    Time Temperature Precipitation Wind Pressure Humidity
    00:00 +33°C° 0 mm 1 mps 748 mmHg 68%
    01:00 +32°C° 0 mm 1 mps 748 mmHg 70%
    02:00 +32°C° 0 mm 1 mps 748 mmHg 71%
    03:00 +32°C° 0 mm 1 mps 747 mmHg 73%
    04:00 +32°C° 0 mm 1 mps 747 mmHg 74%
    05:00 +31°C° 0 mm 1 mps 747 mmHg 76%
    06:00 +31°C° 0 mm 1 mps 747 mmHg 77%
    07:00 +33°C° 0 mm 1 mps 748 mmHg 72%
    08:00 +34°C° 0 mm 1 mps 748 mmHg 66%
    09:00 +33°C° 0 mm 0 mps 749 mmHg 61%
    10:00 +34°C° 0 mm 0 mps 749 mmHg 58%
    11:00 +35°C° 0 mm 0 mps 749 mmHg 54%
    12:00 +36°C° 0 mm 0 mps 748 mmHg 51%
    13:00 +36°C° 0 mm 0 mps 748 mmHg 51%
    14:00 +39°C° 0 mm 1 mps 747 mmHg 51%
    15:00 +39°C° 0 mm 1 mps 746 mmHg 51%
    16:00 +37°C° 0 mm 1 mps 746 mmHg 53%
    17:00 +35°C° 0 mm 0 mps 746 mmHg 55%
    18:00 +35°C° 0 mm 0 mps 746 mmHg 57%
    19:00 +34°C° 0 mm 0 mps 746 mmHg 58%
    20:00 +34°C° 0 mm 0 mps 747 mmHg 60%
    21:00 +33°C° 0 mm 0 mps 747 mmHg 61%
    22:00 +35°C° 0 mm 1 mps 748 mmHg 63%
    23:00 +34°C° 0 mm 1 mps 748 mmHg 66%
    Show more